Beaumont, TX

4:53 PM CST on January 19, 2017 (GMT -0600)
Beaumont Municipal

Weather History for KBMT - February, 2013

Change the Weather History Date:

Wednesday, February 13, 2013

  Actual Average (KBPT) Record (KBPT)
Temperature  
Mean Temperature 50 °F -  
Max Temperature 59 °F 66 °F 82 °F (1918)
Min Temperature 41 °F 46 °F 17 °F (1905)
Degree Days  
Heating Degree Days 14    
Moisture  
Dew Point 37 °F    
Average Humidity 59    
Maximum Humidity 87    
Minimum Humidity 34    
Precipitation  
Precipitation 0.00 in - - ()
Sea Level Pressure  
Sea Level Pressure 30.05 in    
Wind  
Wind Speed 8 mph (NNW)    
Max Wind Speed 15 mph    
Max Gust Speed 18 mph    
Visibility 10 miles    
Events Rain    
Averages and records for this station are not official NWS values.
T = Trace of Precipitation, MM = Missing Value Source: NWS Daily Summary

Daily Weather History Graph

Daily Weather History Graph

Search for Another Location

Airport or City:

Trip Planner

Search our weather history database for the weather conditions in past years. The results will help you decide how hot, cold, wet, or windy it might be!

Date:

Astronomy

Feb. 13, 2013 Rise Set
Actual Time 6:58 AM CST 6:04 PM CST
Civil Twilight 6:33 AM CST 6:28 PM CST
Nautical Twilight 6:05 AM CST 6:56 PM CST
Astronomical Twilight 5:37 AM CST 7:24 PM CST
Moon 8:48 AM CST (2/13) 9:45 PM CST (2/13)
Length of Visible Light 11h 55m
Length of Day
11h 05m
Waxing Crescent, 14% of the Moon is Illuminated
Feb 13
Waxing Crescent
Feb 17
First Quarter
Feb 25
Full
Mar 4
Last Quarter
Mar 11
New

Hourly Weather History & Observations

Time (CST) Temp. Windchill Dew Point Humidity Pressure Visibility Wind Dir Wind Speed Gust Speed Precip Events Conditions
12:15 AM 53.6 °F - 46.4 °F 77% 29.97 in 10.0 mi WNW 9.2 mph - N/A   Scattered Clouds
12:35 AM 53.6 °F - 44.6 °F 72% 29.98 in 10.0 mi NW 9.2 mph - N/A   Mostly Cloudy
12:55 AM 53.6 °F - 44.6 °F 72% 30.00 in 10.0 mi WNW 6.9 mph - N/A   Mostly Cloudy
1:15 AM 53.6 °F - 42.8 °F 67% 29.99 in 10.0 mi NW 9.2 mph 16.1 mph N/A Rain Light Rain
1:35 AM 51.8 °F - 42.8 °F 71% 30.00 in 10.0 mi NW 10.4 mph - N/A   Overcast
1:55 AM 51.8 °F - 42.8 °F 71% 29.98 in 10.0 mi NNW 9.2 mph - N/A   Overcast
2:15 AM 51.8 °F - 41.0 °F 67% 30.00 in 10.0 mi NNW 6.9 mph - N/A Rain Light Rain
2:35 AM 51.8 °F - 41.0 °F 67% 30.02 in 10.0 mi NW 5.8 mph - N/A Rain Light Rain
2:55 AM 51.8 °F - 41.0 °F 67% 30.03 in 10.0 mi WNW 5.8 mph - N/A   Overcast
3:15 AM 51.8 °F - 41.0 °F 67% 30.02 in 10.0 mi NW 10.4 mph - N/A   Overcast
3:35 AM 51.8 °F - 41.0 °F 67% 30.00 in 10.0 mi NNW 8.1 mph - N/A Rain Light Rain
3:55 AM 50.0 °F - 41.0 °F 71% 30.02 in 10.0 mi North 6.9 mph - N/A   Overcast
4:15 AM 50.0 °F - 41.0 °F 71% 30.01 in 10.0 mi North 4.6 mph - N/A   Overcast
4:35 AM 50.0 °F - 41.0 °F 71% 30.01 in 10.0 mi NNW 5.8 mph - N/A   Mostly Cloudy
4:55 AM 50.0 °F - 41.0 °F 71% 30.02 in 10.0 mi NNW 4.6 mph - N/A   Mostly Cloudy
5:15 AM 50.0 °F - 41.0 °F 71% 30.02 in 10.0 mi NNW 6.9 mph - N/A   Scattered Clouds
5:35 AM 50.0 °F - 41.0 °F 71% 30.03 in 10.0 mi NNW 4.6 mph - N/A   Mostly Cloudy
5:55 AM 50.0 °F - 41.0 °F 71% 30.05 in 10.0 mi WNW 4.6 mph - N/A   Overcast
6:15 AM 50.0 °F - 41.0 °F 71% 30.05 in 10.0 mi NW 5.8 mph - N/A   Overcast
6:35 AM 50.0 °F - 41.0 °F 71% 30.07 in 10.0 mi NW 6.9 mph - N/A   Overcast
6:55 AM 50.0 °F - 39.2 °F 66% 30.08 in 10.0 mi WNW 10.4 mph - N/A   Overcast
7:15 AM 48.2 °F - 37.4 °F 66% 30.09 in 10.0 mi WNW 10.4 mph - N/A   Overcast
7:35 AM 48.2 °F - 37.4 °F 66% 30.08 in 10.0 mi NW 8.1 mph - N/A   Overcast
7:55 AM 48.2 °F - 37.4 °F 66% 30.09 in 10.0 mi NW 9.2 mph - N/A   Overcast
8:15 AM 48.2 °F - 37.4 °F 66% 30.09 in 10.0 mi NW 9.2 mph - N/A   Overcast
8:55 AM 48.2 °F - 37.4 °F 66% 30.08 in 10.0 mi NNW 12.7 mph - N/A   Scattered Clouds
9:15 AM 48.2 °F - 37.4 °F 66% 30.08 in 10.0 mi North 12.7 mph 18.4 mph N/A   Clear
9:35 AM 50.0 °F - 35.6 °F 58% 30.11 in 10.0 mi NNW 12.7 mph - N/A   Scattered Clouds
9:55 AM 50.0 °F - 35.6 °F 58% 30.10 in 10.0 mi North 12.7 mph 17.3 mph N/A   Scattered Clouds
10:15 AM 50.0 °F - 33.8 °F 54% 30.09 in 10.0 mi NNW 12.7 mph - N/A   Clear
10:35 AM 50.0 °F - 33.8 °F 54% 30.10 in 10.0 mi North 11.5 mph - N/A   Clear
10:55 AM 51.8 °F - 35.6 °F 54% 30.08 in 10.0 mi NNW 10.4 mph - N/A   Clear
11:15 AM 51.8 °F - 33.8 °F 50% 30.08 in 10.0 mi NNW 15.0 mph - N/A   Clear
11:35 AM 53.6 °F - 33.8 °F 47% 30.08 in 10.0 mi North 11.5 mph 18.4 mph N/A   Clear
11:55 AM 55.4 °F - 33.8 °F 44% 30.07 in 10.0 mi North 13.8 mph - N/A   Clear
12:15 PM 53.6 °F - 33.8 °F 47% 30.08 in 10.0 mi NNW 9.2 mph 18.4 mph N/A   Clear
12:35 PM 53.6 °F - 32.0 °F 44% 30.07 in 10.0 mi North 10.4 mph - N/A   Clear
12:55 PM 55.4 °F - 33.8 °F 44% 30.07 in 10.0 mi North 12.7 mph 16.1 mph N/A   Scattered Clouds
1:15 PM 55.4 °F - 33.8 °F 44% 30.05 in 10.0 mi North 9.2 mph - N/A   Clear
1:35 PM 57.2 °F - 33.8 °F 41% 30.05 in 10.0 mi North 10.4 mph - N/A   Clear
1:55 PM 59.0 °F - 33.8 °F 39% 30.04 in 10.0 mi North 9.2 mph - N/A   Clear
2:15 PM 59.0 °F - 32.0 °F 36% 30.03 in 10.0 mi North 10.4 mph 16.1 mph N/A   Clear
2:35 PM 59.0 °F - 32.0 °F 36% 30.03 in 10.0 mi NNW 12.7 mph - N/A   Clear
2:55 PM 59.0 °F - 32.0 °F 36% 30.03 in 10.0 mi North 9.2 mph - N/A   Clear
3:15 PM 59.0 °F - 32.0 °F 36% 30.03 in 10.0 mi North 12.7 mph - N/A   Clear
3:35 PM 59.0 °F - 32.0 °F 36% 30.02 in 10.0 mi North 9.2 mph - N/A   Clear
3:55 PM 59.0 °F - 32.0 °F 36% 30.02 in 10.0 mi North 9.2 mph - N/A   Clear
4:15 PM 59.0 °F - 32.0 °F 36% 30.03 in 10.0 mi NNW 11.5 mph - N/A   Clear
4:35 PM 59.0 °F - 30.2 °F 34% 30.03 in 10.0 mi NNW 9.2 mph - N/A   Clear
4:55 PM 59.0 °F - 32.0 °F 36% 30.03 in 10.0 mi North 8.1 mph - N/A   Clear
5:15 PM 57.2 °F - 32.0 °F 38% 30.03 in 10.0 mi North 8.1 mph - N/A   Clear
5:35 PM 55.4 °F - 32.0 °F 41% 30.04 in 10.0 mi North 8.1 mph - N/A   Clear
5:55 PM 53.6 °F - 33.8 °F 47% 30.05 in 10.0 mi North 5.8 mph - N/A   Clear
6:15 PM 51.8 °F - 33.8 °F 50% 30.05 in 10.0 mi North 4.6 mph - N/A   Clear
6:35 PM 51.8 °F - 35.6 °F 54% 30.05 in 10.0 mi North 3.5 mph - N/A   Clear
6:55 PM 51.8 °F - 35.6 °F 54% 30.06 in 10.0 mi Calm Calm - N/A   Clear
7:15 PM 50.0 °F - 35.6 °F 58% 30.07 in 10.0 mi NNE 3.5 mph - N/A   Clear
7:35 PM 50.0 °F - 35.6 °F 58% 30.07 in 10.0 mi NNE 4.6 mph - N/A   Clear
7:55 PM 50.0 °F - 35.6 °F 58% 30.07 in 10.0 mi NNE 3.5 mph - N/A   Clear
8:15 PM 46.4 °F 45.2 °F 35.6 °F 66% 30.08 in 10.0 mi North 3.5 mph - N/A   Clear
8:35 PM 46.4 °F 45.2 °F 35.6 °F 66% 30.08 in 10.0 mi NNE 3.5 mph - N/A   Clear
8:55 PM 44.6 °F - 35.6 °F 71% 30.08 in 10.0 mi Calm Calm - N/A   Clear
9:15 PM 44.6 °F - 37.4 °F 76% 30.09 in 10.0 mi Calm Calm - N/A   Clear
9:35 PM 44.6 °F - 35.6 °F 71% 30.09 in 10.0 mi Calm Calm - N/A   Clear
9:55 PM 42.8 °F 41.1 °F 37.4 °F 81% 30.09 in 10.0 mi NNE 3.5 mph - N/A   Clear
10:15 PM 44.6 °F 42.2 °F 37.4 °F 76% 30.10 in 10.0 mi NNE 4.6 mph - N/A   Clear
10:35 PM 44.6 °F 42.2 °F 35.6 °F 71% 30.10 in 10.0 mi NNE 4.6 mph - N/A   Clear
10:55 PM 42.8 °F 40.1 °F 35.6 °F 76% 30.10 in 10.0 mi North 4.6 mph - N/A   Clear
11:15 PM 42.8 °F - 35.6 °F 76% 30.10 in 10.0 mi Calm Calm - N/A   Clear
11:35 PM 42.8 °F - 35.6 °F 76% 30.10 in 10.0 mi Calm Calm - N/A   Clear
11:55 PM 41.0 °F - 37.4 °F 87% 30.10 in 10.0 mi Calm Calm - N/A   Clear